Cut Bank, MT

7:24 AM MDT on October 17, 2019 (GMT -0600)
Cut Bank Municipal

Weather History for KCTB - August, 2019

Change the Weather History Date:

Thursday, August 29, 2019

  Actual Average Record
Temperature  
Mean Temperature 61 °F 60 °F  
Max Temperature 73 °F 75 °F 93 °F (2013)
Min Temperature 48 °F 45 °F 31 °F (1909)
Degree Days  
Heating Degree Days 4 6  
Month to date heating degree days 76 96  
Since 1 June heating degree days 391 415  
Since 1 July heating degree days 169 182  
Cooling Degree Days 0 1  
Month to date cooling degree days 51 63  
Year to date cooling degree days 104 152  
Since 1 June cooling degree days 104 150  
Growing Degree Days 11 (Base 50)    
Moisture  
Dew Point 40 °F    
Average Humidity 47    
Maximum Humidity 77    
Minimum Humidity 30    
Precipitation  
Precipitation 0.00 in 0.04 in 0.48 in (1951)
Month to date precipitation 1.38 1.11  
Year to date precipitation 8.79 8.58  
Snow  
Snow - - - ()
Snow Depth 0.00 in    
Sea Level Pressure  
Sea Level Pressure 30.05 in    
Wind  
Wind Speed 7 mph ()    
Max Wind Speed 18 mph    
Max Gust Speed 24 mph    
Visibility 10.0 miles    
Events      
T = Trace of Precipitation, MM = Missing Value Source: Averaged Metar Reports

Daily Weather History Graph

Daily Weather History Graph

Search for Another Location

Airport or City:

Astronomy

Aug. 29, 2019 Rise Set
Actual Time 6:42 AM MDT 8:17 PM MDT
Civil Twilight 6:09 AM MDT 8:50 PM MDT
Nautical Twilight 5:29 AM MDT 9:30 PM MDT
Astronomical Twilight 4:45 AM MDT 10:14 PM MDT
Moon 5:21 AM MDT (8/29) 8:23 PM MDT (8/29)
Length of Visible Light 14h 41m
Length of Day
13h 35m
Waning Crescent, 1% of the Moon is Illuminated
Aug 29
Waning Crescent
Aug 30
New
Sep 5
First Quarter
Sep 13
Full
Sep 21
Last Quarter

Hourly Weather History & Observations

Time (MDT) Temp. Dew Point Humidity Pressure Visibility Wind Dir Wind Speed Gust Speed Precip Events Conditions
12:56 AM 48.0 °F 41.0 °F 77% 30.09 in 10.0 mi West 4.6 mph - N/A   Mostly Cloudy
1:56 AM 54.0 °F 41.0 °F 62% 30.08 in 10.0 mi Calm Calm - N/A   Overcast
2:56 AM 55.0 °F 43.0 °F 64% 30.07 in 10.0 mi Calm Calm - N/A   Overcast
4:56 AM 50.0 °F 41.0 °F 71% 30.09 in 10.0 mi East 3.5 mph - N/A   Clear
5:56 AM 48.9 °F 39.0 °F 69% 30.09 in 10.0 mi East 4.6 mph - N/A   Clear
6:56 AM 48.0 °F 39.0 °F 71% 30.10 in 10.0 mi SE 4.6 mph - N/A   Clear
7:56 AM 51.1 °F 39.9 °F 66% 30.11 in 10.0 mi ESE 5.8 mph - N/A   Clear
8:56 AM 57.0 °F 35.1 °F 44% 30.11 in 10.0 mi SE 10.4 mph - N/A   Clear
9:56 AM 61.0 °F 37.0 °F 41% 30.11 in 10.0 mi SSE 13.8 mph - N/A   Clear
10:56 AM 63.0 °F 36.0 °F 37% 30.11 in 10.0 mi SE 15.0 mph - N/A   Clear
11:56 AM 66.9 °F 36.0 °F 32% 30.09 in 10.0 mi ESE 15.0 mph - N/A   Clear
12:56 PM 69.1 °F 37.0 °F 31% 30.07 in 10.0 mi SSE 16.1 mph 20.7 mph N/A   Clear
1:56 PM 72.0 °F 39.0 °F 30% 30.03 in 10.0 mi SE 10.4 mph 19.6 mph N/A   Clear
2:56 PM 72.0 °F 39.9 °F 31% 30.01 in 10.0 mi SSE 9.2 mph - N/A   Clear
3:56 PM 72.0 °F 41.0 °F 33% 30.00 in 10.0 mi SE 11.5 mph - N/A   Clear
4:56 PM 73.0 °F 41.0 °F 31% 29.99 in 10.0 mi SE 11.5 mph - N/A   Clear
5:56 PM 73.0 °F 41.0 °F 31% 30.00 in 10.0 mi SE 11.5 mph - N/A   Clear
6:56 PM 72.0 °F 41.0 °F 33% 30.01 in 10.0 mi SSE 16.1 mph - N/A   Clear
7:53 PM 68.0 °F 39.2 °F 35% 30.06 in 10.0 mi SW 12.7 mph - N/A   Clear
7:56 PM 68.0 °F 39.9 °F 36% 30.01 in 10.0 mi SW 13.8 mph - N/A   Clear
8:56 PM 63.0 °F 39.9 °F 43% 30.01 in 10.0 mi SW 8.1 mph - N/A   Clear
9:56 PM 59.0 °F 41.0 °F 51% 30.01 in 10.0 mi SE 8.1 mph - N/A   Clear
10:56 PM 59.0 °F 41.0 °F 51% 30.00 in 10.0 mi SE 6.9 mph - N/A   Clear
11:56 PM 55.9 °F 41.0 °F 57% 29.99 in 10.0 mi East 5.8 mph - N/A   Clear